Norwood, MA

1:23 AM EDT on April 27, 2017 (GMT -0400)
Norwood Memorial

Weather History for KOWD - April, 2013

Change the Weather History Date:

Wednesday, April 3, 2013

  Actual Average Record
Temperature  
Mean Temperature 38 °F -  
Max Temperature 46 °F 49 °F 69 °F (2002)
Min Temperature 30 °F 32 °F 23 °F (2008)
Degree Days  
Heating Degree Days 27    
Moisture  
Dew Point 12 °F    
Average Humidity 37    
Maximum Humidity 54    
Minimum Humidity 22    
Precipitation  
Precipitation 0.00 in - - ()
Sea Level Pressure  
Sea Level Pressure 30.00 in    
Wind  
Wind Speed 14 mph (West)    
Max Wind Speed 23 mph    
Max Gust Speed 33 mph    
Visibility 10 miles    
Events      
Averages and records for this station are not official NWS values.
T = Trace of Precipitation, MM = Missing Value Source: NWS Daily Summary

Daily Weather History Graph

Daily Weather History Graph

Search for Another Location

Airport or City:

Trip Planner

Search our weather history database for the weather conditions in past years. The results will help you decide how hot, cold, wet, or windy it might be!

Date:

Astronomy

Apr. 03, 2013 Rise Set
Actual Time 6:23 AM EDT 7:12 PM EDT
Civil Twilight 5:55 AM EDT 7:41 PM EDT
Nautical Twilight 5:21 AM EDT 8:15 PM EDT
Astronomical Twilight 4:46 AM EDT 8:50 PM EDT
Moon 2:08 AM EDT (4/3) 12:14 PM EDT (4/3)
Length of Visible Light 13h 46m
Length of Day
12h 49m
Last Quarter, 45% of the Moon is Illuminated
Apr 3
Last Quarter
Apr 10
New
Apr 18
First Quarter
Apr 25
Full
May 2
Last Quarter

Hourly Weather History & Observations

Time (EDT) Temp. Windchill Dew Point Humidity Pressure Visibility Wind Dir Wind Speed Gust Speed Precip Events Conditions
12:53 AM 33.1 °F 23.4 °F 15.1 °F 48% 29.95 in 10.0 mi West 13.8 mph 23.0 mph N/A   Overcast
1:53 AM 33.1 °F 24.4 °F 15.1 °F 48% 29.96 in 10.0 mi West 11.5 mph 23.0 mph N/A   Partly Cloudy
2:53 AM 33.1 °F 25.5 °F 16.0 °F 50% 29.96 in 10.0 mi West 9.2 mph 19.6 mph N/A   Overcast
3:53 AM 32.0 °F 27.5 °F 17.1 °F 54% 29.95 in 10.0 mi Variable 4.6 mph - N/A   Overcast
4:53 AM 32.0 °F 22.1 °F 12.9 °F 45% 29.96 in 10.0 mi West 13.8 mph 23.0 mph N/A   Mostly Cloudy
5:53 AM 30.9 °F 19.4 °F 14.0 °F 50% 29.97 in 10.0 mi West 17.3 mph 25.3 mph N/A   Clear
6:53 AM 30.9 °F 22.2 °F 15.1 °F 52% 30.00 in 10.0 mi West 10.4 mph - N/A   Clear
7:53 AM 33.1 °F 23.0 °F 10.9 °F 40% 30.01 in 10.0 mi West 15.0 mph - N/A   Clear
8:53 AM 35.1 °F 24.5 °F 12.0 °F 39% 30.01 in 10.0 mi West 18.4 mph 27.6 mph N/A   Clear
9:53 AM 37.0 °F 25.9 °F 12.9 °F 37% 29.99 in 10.0 mi WNW 23.0 mph 32.2 mph 0.00 in   Clear
10:53 AM 39.9 °F 31.4 °F 10.9 °F 31% 29.99 in 10.0 mi West 16.1 mph 29.9 mph N/A   Clear
11:53 AM 42.1 °F 32.6 °F 10.0 °F 27% 29.98 in 10.0 mi WNW 23.0 mph 31.1 mph N/A   Clear
12:53 PM 44.1 °F 36.5 °F 10.9 °F 26% 29.96 in 10.0 mi West 17.3 mph 28.8 mph N/A   Clear
1:53 PM 45.0 °F 36.9 °F 8.1 °F 22% 29.96 in 10.0 mi West 20.7 mph 28.8 mph N/A   Clear
2:53 PM 46.0 °F 38.5 °F 10.9 °F 24% 29.96 in 10.0 mi West 19.6 mph 27.6 mph N/A   Clear
3:53 PM 46.0 °F 39.9 °F 10.9 °F 24% 29.96 in 10.0 mi NW 13.8 mph 25.3 mph N/A   Clear
4:53 PM 46.0 °F 38.8 °F 10.9 °F 24% 29.96 in 10.0 mi West 18.4 mph 29.9 mph N/A   Clear
5:53 PM 44.1 °F 35.7 °F 10.0 °F 25% 29.98 in 10.0 mi WNW 20.7 mph 33.4 mph N/A   Clear
6:53 PM 41.0 °F 33.5 °F 10.0 °F 28% 30.01 in 10.0 mi West 13.8 mph 24.2 mph N/A   Clear
7:53 PM 39.0 °F 30.6 °F 10.9 °F 32% 30.05 in 10.0 mi West 15.0 mph 23.0 mph N/A   Clear
8:53 PM 37.9 °F 29.6 °F 12.0 °F 35% 30.10 in 10.0 mi WNW 13.8 mph 21.9 mph N/A   Clear
9:53 PM 36.0 °F 28.0 °F 14.0 °F 41% 30.13 in 10.0 mi West 11.5 mph 20.7 mph N/A   Clear
10:53 PM 35.1 °F 26.9 °F 12.9 °F 40% 30.15 in 10.0 mi West 11.5 mph 20.7 mph N/A   Clear
11:53 PM 34.0 °F 25.5 °F 14.0 °F 44% 30.17 in 10.0 mi West 11.5 mph 19.6 mph N/A   Clear